Tracking 19176 objects as of 26-May-2018
HD Live streaming from Space Station
objects crossing your sky now

COSMOS 1622

Track COSMOS 1622 now!
10-day predictions
COSMOS 1622 is classified as:


NORAD ID: 15474
Int'l Code: 1985-003F
Perigee: 1,406.9 km
Apogee: 1,422.0 km
Inclination: 82.6 °
Period: 113.9 minutes
Semi major axis: 7785 km
RCS: 0.137 m2 (medium)
Launch date: January 15, 1985
Source: Commonwealth of Independent States (former USSR) (CIS)
Launch site: PLESETSK MISSILE AND SPACE COMPLEX (PKMTR)
aabbcc
Your satellite tracking list
Your tracking list is empty




NASA's NSSDC Master Catalog

Two Line Element Set (TLE):
1 15474U 85003F   18145.53037675  .00000027  00000-0  91943-4 0  9991
2 15474  82.6060 161.3071 0009652  35.0724 123.6009 12.63794009538881
Source of the keplerian elements: AFSPC